Вернуться в каталог

STARLINK-36551

АктивенСвязьVLEO
NORAD 67493·PAYLOAD·🇺🇸 United States

Запущен Jan 18, 2026 с Cape Canaveral Space Force Station

Loading…

Ближайшие Пролёты (ближайшие 24 часа)

TLE

СвежийSource: CelesTrak SupGP

Эпоха: Sep 15, 2026, 02:50 UTC

1 67493C 26012A   26258.11854167  .00036695  00000+0  13289-2 0  2587
2 67493  43.0014 324.9901 0001374 262.2737 262.6982 15.27565787    14

Отслеживайте STARLINK-36551 в реальном времени с AllMySat

Download on the App Store